Zephyrhills, FL

10:07 PM EST on December 09, 2016 (GMT -0500)
Zephyrhills Municipal

Weather History for KZPH - February, 2014

Change the Weather History Date:

Wednesday, February 5, 2014

  Actual Average (KPCM) Record (KPCM)
Temperature  
Mean Temperature 74 °F -  
Max Temperature 82 °F 72 °F 86 °F (1943)
Min Temperature 66 °F 48 °F 26 °F (1966)
Cooling Degree Days 9    
Growing Degree Days 24 (Base 50)    
Moisture  
Dew Point 70 °F    
Average Humidity 95    
Maximum Humidity 100    
Minimum Humidity 66    
Precipitation  
Precipitation 0.01 in - - ()
Sea Level Pressure  
Sea Level Pressure 30.06 in    
Wind  
Wind Speed 7 mph (SSW)    
Max Wind Speed 17 mph    
Max Gust Speed 22 mph    
Visibility 10 miles    
Events Rain    
Averages and records for this station are not official NWS values.
T = Trace of Precipitation, MM = Missing Value Source: NWS Daily Summary

Daily Weather History Graph

Daily Weather History Graph

Search for Another Location

Airport or City:

Trip Planner

Search our weather history database for the weather conditions in past years. The results will help you decide how hot, cold, wet, or windy it might be!

Date:

Astronomy

Feb. 05, 2014 Rise Set
Actual Time 7:13 AM EST 6:11 PM EST
Civil Twilight 6:49 AM EST 6:36 PM EST
Nautical Twilight 6:21 AM EST 7:04 PM EST
Astronomical Twilight 5:53 AM EST 7:31 PM EST
Moon 11:03 AM EST (2/5) No Moon Set
Length of Visible Light 11h 46m
Length of Day
10h 58m
Waxing Crescent, 39% of the Moon is Illuminated
Feb 5
Waxing Crescent
Feb 6
First Quarter
Feb 14
Full
Feb 22
Last Quarter
Mar 1
New

Hourly Weather History & Observations

Time (EST) Temp. Heat Index Dew Point Humidity Pressure Visibility Wind Dir Wind Speed Gust Speed Precip Events Conditions
12:15 AM 69.8 °F - 69.8 °F 100% 30.07 in 10.0 mi SSE 9.2 mph - N/A   Scattered Clouds
12:35 AM 69.8 °F - 69.8 °F 100% 30.07 in 10.0 mi SSE 9.2 mph - N/A   Mostly Cloudy
12:55 AM 69.8 °F - 69.8 °F 100% 30.07 in 10.0 mi SSE 9.2 mph - N/A   Mostly Cloudy
1:15 AM 69.8 °F - 69.8 °F 100% 30.07 in 10.0 mi SSE 8.1 mph - N/A   Mostly Cloudy
1:35 AM 69.8 °F - 69.8 °F 100% 30.07 in 10.0 mi SSE 8.1 mph - N/A   Scattered Clouds
1:55 AM 68.0 °F - 68.0 °F 100% 30.06 in 10.0 mi SSE 8.1 mph - N/A   Clear
2:15 AM 68.0 °F - 68.0 °F 100% 30.06 in 10.0 mi SE 8.1 mph - N/A   Clear
2:35 AM 68.0 °F - 68.0 °F 100% 30.06 in 10.0 mi South 3.5 mph - N/A   Clear
2:55 AM 68.0 °F - 68.0 °F 100% 30.05 in 10.0 mi SSE 4.6 mph - N/A   Clear
3:15 AM 66.2 °F - 66.2 °F 100% 30.05 in 10.0 mi SSE 3.5 mph - N/A   Clear
3:35 AM 66.2 °F - 66.2 °F 100% 30.05 in 10.0 mi SE 4.6 mph - N/A   Clear
3:55 AM 66.2 °F - 66.2 °F 100% 30.05 in 10.0 mi SE 4.6 mph - N/A   Mostly Cloudy
4:15 AM 66.2 °F - 66.2 °F 100% 30.05 in 10.0 mi SSE 3.5 mph - N/A   Overcast
4:35 AM 66.2 °F - 66.2 °F 100% 30.05 in 10.0 mi SSE 3.5 mph - N/A   Mostly Cloudy
4:55 AM 66.2 °F - 66.2 °F 100% 30.06 in 10.0 mi Calm Calm - N/A   Mostly Cloudy
5:15 AM 68.0 °F - 68.0 °F 100% 30.06 in 10.0 mi Calm Calm - N/A   Overcast
5:35 AM 68.0 °F - 68.0 °F 100% 30.07 in 10.0 mi Calm Calm - N/A   Overcast
5:55 AM 68.0 °F - 68.0 °F 100% 30.07 in 10.0 mi Calm Calm - N/A   Overcast
6:15 AM 68.0 °F - 68.0 °F 100% 30.08 in 10.0 mi Calm Calm - N/A   Overcast
6:35 AM 68.0 °F - 68.0 °F 100% 30.08 in 10.0 mi Calm Calm - N/A   Overcast
6:55 AM 68.0 °F - 68.0 °F 100% 30.08 in 10.0 mi SSE 3.5 mph - N/A   Overcast
7:15 AM 68.0 °F - 68.0 °F 100% 30.08 in 7.0 mi South 5.8 mph - N/A   Overcast
7:35 AM 69.8 °F - 69.8 °F 100% 30.09 in 5.0 mi South 4.6 mph - N/A   Overcast
7:55 AM 69.8 °F - 69.8 °F 100% 30.09 in 4.0 mi SSW 4.6 mph - N/A   Overcast
8:15 AM 69.8 °F - 69.8 °F 100% 30.09 in 5.0 mi SSE 6.9 mph - N/A   Overcast
8:35 AM 69.8 °F - 69.8 °F 100% 30.09 in 5.0 mi South 5.8 mph - N/A   Overcast
8:55 AM 71.6 °F - 71.6 °F 100% 30.09 in 7.0 mi South 6.9 mph - N/A   Overcast
9:15 AM 71.6 °F - 71.6 °F 100% 30.09 in 10.0 mi SSW 6.9 mph - N/A   Overcast
9:35 AM 71.6 °F - 71.6 °F 100% 30.10 in 10.0 mi South 8.1 mph - N/A   Overcast
9:55 AM 71.6 °F - 71.6 °F 100% 30.10 in 10.0 mi South 6.9 mph - N/A   Overcast
10:15 AM 73.4 °F - 73.4 °F 100% 30.10 in 10.0 mi SSW 6.9 mph - N/A   Overcast
10:35 AM 77.0 °F - 77.0 °F 100% 30.09 in 10.0 mi SSW 9.2 mph - N/A   Overcast
10:55 AM 77.0 °F - 77.0 °F 100% 30.09 in 10.0 mi SSW 11.5 mph - N/A   Overcast
11:15 AM 78.8 °F - 78.8 °F 100% 30.08 in 10.0 mi SSW 12.7 mph 18.4 mph N/A   Overcast
11:35 AM 78.8 °F - 78.8 °F 100% 30.07 in 10.0 mi SW 15.0 mph 19.6 mph N/A   Mostly Cloudy
11:55 AM 78.8 °F - 77.0 °F 94% 30.07 in 10.0 mi SSW 13.8 mph - N/A   Mostly Cloudy
12:15 PM 78.8 °F - 75.2 °F 89% 30.06 in 10.0 mi WSW 17.3 mph 20.7 mph N/A   Mostly Cloudy
12:35 PM 80.6 °F 87.1 °F 77.0 °F 89% 30.05 in 10.0 mi WSW 16.1 mph 21.9 mph N/A   Scattered Clouds
12:55 PM 82.4 °F 88.2 °F 73.4 °F 74% 30.03 in 10.0 mi West 15.0 mph - N/A   Mostly Cloudy
1:15 PM 80.6 °F 84.6 °F 71.6 °F 74% 30.02 in 10.0 mi SW 13.8 mph 19.6 mph N/A   Scattered Clouds
1:35 PM 80.6 °F 84.6 °F 71.6 °F 74% 30.02 in 10.0 mi WSW 13.8 mph 18.4 mph N/A   Mostly Cloudy
1:55 PM 82.4 °F 87.2 °F 71.6 °F 70% 30.01 in 10.0 mi SW 12.7 mph - N/A   Mostly Cloudy
2:15 PM 80.6 °F 83.9 °F 69.8 °F 70% 30.01 in 10.0 mi SW 11.5 mph - N/A   Scattered Clouds
2:35 PM 82.4 °F 86.3 °F 69.8 °F 66% 30.00 in 10.0 mi WSW 10.4 mph 18.4 mph N/A   Scattered Clouds
2:55 PM 80.6 °F 83.9 °F 69.8 °F 70% 30.00 in 10.0 mi SW 11.5 mph - N/A   Scattered Clouds
3:15 PM 80.6 °F 83.9 °F 69.8 °F 70% 30.00 in 10.0 mi SW 12.7 mph - N/A   Scattered Clouds
3:35 PM 80.6 °F 83.9 °F 69.8 °F 70% 30.00 in 10.0 mi West 13.8 mph 18.4 mph N/A   Scattered Clouds
3:55 PM 78.8 °F - 69.8 °F 74% 30.01 in 10.0 mi WSW 11.5 mph - N/A   Mostly Cloudy
4:15 PM 78.8 °F - 71.6 °F 78% 30.02 in 10.0 mi WSW 12.7 mph 18.4 mph N/A   Scattered Clouds
4:35 PM 78.8 °F - 71.6 °F 78% 30.02 in 10.0 mi SW 8.1 mph - N/A   Mostly Cloudy
4:55 PM 77.0 °F - 73.4 °F 89% 30.02 in 10.0 mi WSW 9.2 mph - N/A   Mostly Cloudy
5:15 PM 77.0 °F - 73.4 °F 89% 30.02 in 10.0 mi NW 6.9 mph - N/A   Mostly Cloudy
5:35 PM 73.4 °F - 71.6 °F 94% 30.03 in 7.0 mi West 6.9 mph - N/A Rain Rain
5:55 PM 71.6 °F - 71.6 °F 100% 30.03 in 10.0 mi West 4.6 mph - 0.01 in   Scattered Clouds
6:15 PM 71.6 °F - 71.6 °F 100% 30.03 in 10.0 mi WSW 4.6 mph - N/A   Clear
6:35 PM 71.6 °F - 71.6 °F 100% 30.04 in 10.0 mi Calm Calm - N/A   Clear
6:55 PM 71.6 °F - 71.6 °F 100% 30.04 in 10.0 mi West 4.6 mph - N/A   Scattered Clouds
7:15 PM 69.8 °F - 69.8 °F 100% 30.04 in 10.0 mi WSW 3.5 mph - N/A   Mostly Cloudy
7:35 PM 69.8 °F - 69.8 °F 100% 30.05 in 7.0 mi West 3.5 mph - N/A   Overcast
7:55 PM 69.8 °F - 69.8 °F 100% 30.05 in 10.0 mi West 5.8 mph - N/A   Mostly Cloudy
8:15 PM 69.8 °F - 69.8 °F 100% 30.06 in 10.0 mi West 6.9 mph - N/A   Mostly Cloudy
8:35 PM 69.8 °F - 69.8 °F 100% 30.07 in 10.0 mi West 5.8 mph - N/A   Overcast
8:55 PM 69.8 °F - 69.8 °F 100% 30.07 in 10.0 mi West 3.5 mph - N/A   Mostly Cloudy
9:15 PM 69.8 °F - 69.8 °F 100% 30.08 in 10.0 mi West 4.6 mph - N/A   Mostly Cloudy
9:35 PM 69.8 °F - 69.8 °F 100% 30.07 in 10.0 mi West 3.5 mph - N/A   Overcast
9:55 PM 69.8 °F - 69.8 °F 100% 30.08 in 10.0 mi Calm Calm - N/A   Overcast
10:15 PM 69.8 °F - 69.8 °F 100% 30.08 in 10.0 mi Calm Calm - N/A   Overcast
10:35 PM 68.0 °F - 68.0 °F 100% 30.08 in 10.0 mi Calm Calm - N/A   Overcast
10:55 PM 68.0 °F - 68.0 °F 100% 30.08 in 10.0 mi Calm Calm - N/A   Overcast
11:15 PM 68.0 °F - 68.0 °F 100% 30.07 in 10.0 mi Calm Calm - N/A   Overcast
11:35 PM 68.0 °F - 68.0 °F 100% 30.07 in 10.0 mi SSW 3.5 mph - N/A   Overcast
11:55 PM 68.0 °F - 68.0 °F 100% 30.07 in 10.0 mi Calm Calm - N/A   Overcast